Location: Axtheid
(49.6213°N, 11.8205°E)
Time: 16:54:35
(UTC+00:00)

STARLINK-1093 - Pass Details

Date: 18 February 2020
Orbit: 374 x 385 km, 53.0° (Epoch: 07 April)

Event Time Altitude Azimuth Distance (km) Brightness Sun altitude
Exits shadow 05:37:13 - 241° (WSW) 1,765 5.7 -7.3°
Reaches altitude 10° 05:38:10 10° 241° (WSW) 1,372 5.2 -7.1°
Maximum altitude 05:41:13 78° 155° (SSE) 386 2.9 -6.6°
Drops below altitude 10° 05:44:18 10° 69° (ENE) 1,380 6.7 -6.2°
Sets 05:46:21 0° 68° (ENE) 2,234 7.8 -5.8°
